DECAYED

DMSP 5D-2 F13 DEB, 40674 (Decayed)

Orbit data source: Space-Track

DMSP 5D-2 F13 DEB, 40674 was space debris in LEO originally from a launch on Fri, 24 Mar 1995 UTC launched from the Air Force Western Test Range (AFWTR). Debris objects in space refer to the collection of defunct objects orbiting the Earth. Examples of debris include non-operational satellites, rocket bodies, and fragments generated from explosions, collisions, or faulty payload assembly.

Not visible in the next 10 days
DMSP 5D-2 F13 DEB details
Identifier
40674, 1995-015FN
Orbit
Decayed
Last TLE update8 months ago
Origin
Flag of USUSAF SMC (US)
ManufacturerUnknown
MissionDecayed spacecraft
Bus & MotorUnknown
MassUnknown
Launch date (UTC)
1995-03-24 (30 years ago)
Launch vehicleUnknown
Launch site
Air Force Western Test Range (AFWTR)
Object type
Payload
Rocket body
Debris
Shape & HBRUnknown
Radar Cross SectionSmall (<0.1 m²)

Expand to show TLE details & history

TLE from 8 months ago
0 DMSP 5D-2 F13 DEB
1 40674U 95015FN  24105.06456425  .08945493  13825+0  51589-1 0  9994
2 40674  98.7127 203.4122 0030997 297.8357  61.9768 15.84787892467856
Epoch: 2024-04-14T01:32Z
Definitive object data (Epoch: 2024-04-14T01:32:58.351Z)
Latitude-0.00008°
Longitude-22.55451°
Altitude310.356 km
Speed7.727 km/s
True Right ascension13h 33m 38s
True Declination0° 00' 00"
Sunlit
Object was in full shadow at TLE epoch
Visualization observer readout
Observer readout values are unavailable because the object's trajectory could not be propagated. This is usually caused when the trajectory data is faulty or the object's orbit has decayed.
Visualization observer readout
Observer readout values are unavailable because the object's trajectory could not be propagated. This is usually caused when the trajectory data is faulty or the object's orbit has decayed.
Orbital elements
Apogee altitude334.608 km
Perigee altitude293.121 km
Semi-major axis6,692.001 km
Eccentricity0.0030997
Inclination98.7127°
RAAN203.4122°
Arg. of periapsis297.8357°
True anomaly62.29093°
Mean anomaly61.9768°
Eccentric anomaly62.13381°
Mean motion3.96469 °/min
BSTAR0.051589
Orbital period90.8 mins
Loading maneuver chart data...

DMSP 5D-2 F13 DEB Visibility forecast

Observer location: undefined°, undefined

This satellite is decayed
Span
Click to sort rows by Start time (UTC) header in descending order
Start Az.
Max El. time (UTC)
Max El. Az.
Max El.
End time (UTC)
End Az.
|